ABW510 EBLG-UNKL

Flight info

Callsign ABW510
Flight time N/A
Altitude 35000
Route LNO DCT BUMIL DCT BANUB DCT GOSOT DCT DEREX/K0902F350 DCT KOMEK N198 INDIL T821 SOPID/K0909F370 T821 DELUL M59 NWK T631 SOREB A307 KUMOD N869 KELOK B115 RANET RANET2R
Aircraft B748/H-SDE3FGHIM1M2RWXY/LB1

Departure

Time 2026-05-01 12:23
Airport Liège Airport (EBLG)

Arrival

Time N/A
Airport Krasnoyarsk International Airport (UNKL)
Time Latitude Longitude Altitude Speed Heading
2026-05-01 12:00 50.63970 5.43647 615 ft 0 kts 315°
2026-05-01 12:06 50.63969 5.43648 615 ft 1 kts 315°
2026-05-01 12:06 50.63961 5.43660 615 ft 1 kts 315°
2026-05-01 12:06 50.63953 5.43673 615 ft 1 kts 315°
2026-05-01 12:06 50.63945 5.43685 615 ft 1 kts 315°
2026-05-01 12:07 50.63938 5.43696 615 ft 1 kts 315°
2026-05-01 12:07 50.63931 5.43708 615 ft 1 kts 315°
2026-05-01 12:07 50.63923 5.43720 615 ft 1 kts 315°
2026-05-01 12:07 50.63915 5.43732 615 ft 1 kts 315°
2026-05-01 12:08 50.63908 5.43744 615 ft 1 kts 314°
2026-05-01 12:08 50.63901 5.43754 616 ft 0 kts 314°
2026-05-01 12:08 50.63901 5.43755 616 ft 0 kts 314°
2026-05-01 12:12 50.63902 5.43753 616 ft 0 kts 314°
2026-05-01 12:13 50.63908 5.43743 615 ft 2 kts 305°
2026-05-01 12:13 50.63912 5.43721 616 ft 2 kts 259°
2026-05-01 12:13 50.63902 5.43698 616 ft 3 kts 213°
2026-05-01 12:13 50.63887 5.43684 617 ft 2 kts 211°
2026-05-01 12:14 50.63877 5.43675 617 ft 1 kts 211°
2026-05-01 12:14 50.63869 5.43666 618 ft 1 kts 211°
2026-05-01 12:14 50.63860 5.43658 618 ft 1 kts 211°
2026-05-01 12:14 50.63848 5.43646 618 ft 2 kts 212°
2026-05-01 12:15 50.63832 5.43630 619 ft 3 kts 209°
2026-05-01 12:15 50.63811 5.43612 620 ft 5 kts 207°
2026-05-01 12:15 50.63779 5.43587 622 ft 6 kts 207°
2026-05-01 12:15 50.63744 5.43552 623 ft 7 kts 220°
2026-05-01 12:16 50.63709 5.43501 625 ft 9 kts 224°
2026-05-01 12:16 50.63670 5.43438 627 ft 10 kts 225°
2026-05-01 12:16 50.63627 5.43371 628 ft 12 kts 225°
2026-05-01 12:16 50.63572 5.43282 631 ft 13 kts 225°
2026-05-01 12:17 50.63511 5.43186 633 ft 14 kts 224°
2026-05-01 12:17 50.63452 5.43094 635 ft 16 kts 224°
2026-05-01 12:17 50.63387 5.42998 636 ft 16 kts 214°
2026-05-01 12:17 50.63309 5.42934 638 ft 13 kts 205°
2026-05-01 12:18 50.63266 5.42902 638 ft 7 kts 204°
2026-05-01 12:18 50.63221 5.42882 639 ft 7 kts 173°
2026-05-01 12:18 50.63178 5.42906 640 ft 7 kts 157°
2026-05-01 12:18 50.63142 5.42928 641 ft 7 kts 161°
2026-05-01 12:19 50.63101 5.42942 641 ft 7 kts 171°
2026-05-01 12:19 50.63056 5.42951 642 ft 7 kts 173°
2026-05-01 12:19 50.63016 5.42969 643 ft 6 kts 157°
2026-05-01 12:19 50.62983 5.42991 644 ft 5 kts 156°
2026-05-01 12:20 50.62960 5.43010 645 ft 4 kts 148°
2026-05-01 12:20 50.62938 5.43031 646 ft 4 kts 147°
2026-05-01 12:20 50.62920 5.43065 646 ft 5 kts 106°
2026-05-01 12:20 50.62926 5.43114 646 ft 6 kts 59°
2026-05-01 12:21 50.62944 5.43149 646 ft 0 kts 47°
2026-05-01 12:21 50.62947 5.43154 646 ft 1 kts 47°
2026-05-01 12:21 50.62956 5.43169 646 ft 3 kts 46°
2026-05-01 12:21 50.62993 5.43231 645 ft 25 kts 46°
2026-05-01 12:22 50.63186 5.43536 639 ft 76 kts 44°
2026-05-01 12:22 50.63603 5.44191 621 ft 123 kts 45°
2026-05-01 12:22 50.64089 5.44965 607 ft 156 kts 45°
2026-05-01 12:23 50.66311 5.48070 1292 ft 181 kts 47°
2026-05-01 12:23 50.66979 5.49239 1530 ft 187 kts 49°
2026-05-01 12:23 50.67620 5.50357 1847 ft 188 kts 49°
2026-05-01 12:24 50.68308 5.51533 2141 ft 190 kts 49°
2026-05-01 12:24 50.69079 5.52827 2398 ft 196 kts 47°
2026-05-01 12:24 50.69998 5.54271 2517 ft 215 kts 46°
2026-05-01 12:25 50.71954 5.56789 3075 ft 240 kts 24°
2026-05-01 12:25 50.74644 5.56890 3964 ft 251 kts 335°
2026-05-01 12:25 50.75874 5.55570 4434 ft 252 kts 308°
2026-05-01 12:26 50.76637 5.53299 4946 ft 249 kts 276°
2026-05-01 12:26 50.76931 5.49085 5696 ft 258 kts 274°
2026-05-01 12:26 50.77214 5.46710 6289 ft 257 kts 279°
2026-05-01 12:27 50.78256 5.40247 7863 ft 259 kts 277°
2026-05-01 12:28 50.78945 5.35182 8904 ft 265 kts 277°
2026-05-01 12:28 50.79223 5.33175 9320 ft 267 kts 278°
2026-05-01 12:28 50.79882 5.28491 10298 ft 272 kts 278°
2026-05-01 12:29 50.80246 5.25934 10831 ft 273 kts 278°
2026-05-01 12:29 50.80547 5.23748 11266 ft 275 kts 274°
2026-05-01 12:30 50.77835 5.16168 12964 ft 260 kts 188°
2026-05-01 12:30 50.76494 5.15983 13324 ft 257 kts 170°
2026-05-01 12:30 50.75056 5.16186 13692 ft 262 kts 172°
2026-05-01 12:31 50.73326 5.16307 14187 ft 265 kts 175°
2026-05-01 12:31 50.71756 5.16308 14700 ft 266 kts 175°
2026-05-01 12:31 50.70479 5.16549 15067 ft 265 kts 161°
2026-05-01 12:31 50.69036 5.17575 15385 ft 270 kts 141°
2026-05-01 12:32 50.66324 5.24419 15837 ft 308 kts 115°
2026-05-01 12:32 50.65433 5.27138 15917 ft 323 kts 119°
2026-05-01 12:33 50.64494 5.29644 15981 ft 337 kts 121°
2026-05-01 12:33 50.63726 5.31601 16030 ft 347 kts 121°
2026-05-01 12:33 50.62668 5.34280 16105 ft 360 kts 121°
2026-05-01 12:33 50.61294 5.37770 16196 ft 376 kts 121°
2026-05-01 12:34 50.60188 5.40588 16263 ft 388 kts 120°
2026-05-01 12:34 50.59065 5.43459 16342 ft 400 kts 120°
2026-05-01 12:34 50.57919 5.46439 16544 ft 407 kts 120°
2026-05-01 12:35 50.56063 5.52202 17264 ft 413 kts 106°
2026-05-01 12:35 50.55633 5.55614 17756 ft 415 kts 94°
2026-05-01 12:35 50.55706 5.59097 18148 ft 419 kts 80°
2026-05-01 12:35 50.56404 5.62795 18515 ft 423 kts 66°
2026-05-01 12:36 50.58030 5.67934 18979 ft 430 kts 64°